• In Russia
  • List of Countries
  • For 7 days
  • Water Temperature
  • Satellite Maps
  • Weather Map
  • Weather Widgets
  • user-avatar
    Login

    Hourly Weather Bansko

    Today, 21 October, Sunday

    Time Temperature Precipitation Wind Pressure Humidity
    00:00 +11°C° 0 mm 1 mps 723 mmHg 87%
    01:00 +11°C° 0 mm 1 mps 723 mmHg 88%
    02:00 +11°C° 0 mm 1 mps 723 mmHg 90%
    03:00 +10°C° 0 mm 1 mps 723 mmHg 90%
    04:00 +10°C° 0 mm 1 mps 722 mmHg 90%
    05:00 +10°C° 0 mm 1 mps 722 mmHg 90%
    06:00 +11°C° 0 mm 1 mps 722 mmHg 87%
    07:00 +12°C° 0 mm 1 mps 722 mmHg 84%
    08:00 +12°C° 0 mm 1 mps 723 mmHg 80%
    09:00 +14°C° 0 mm 1 mps 723 mmHg 72%
    10:00 +16°C° 0 mm 1 mps 723 mmHg 64%
    11:00 +18°C° 0 mm 1 mps 723 mmHg 56%
    12:00 +19°C° 0 mm 1 mps 723 mmHg 55%
    13:00 +19°C° 0 mm 1 mps 722 mmHg 54%
    14:00 +19°C° 0 mm 1 mps 722 mmHg 54%
    15:00 +18°C° 0.1 mm 1 mps 722 mmHg 57%
    16:00 +17°C° 0.1 mm 2 mps 722 mmHg 61%
    17:00 +16°C° 0.1 mm 2 mps 722 mmHg 65%
    18:00 +15°C° 0.1 mm 2 mps 722 mmHg 71%
    19:00 +13°C° 0.1 mm 1 mps 722 mmHg 76%
    20:00 +12°C° 0.1 mm 1 mps 723 mmHg 82%
    21:00 +12°C° 0.1 mm 1 mps 723 mmHg 84%
    22:00 +12°C° 0.1 mm 1 mps 723 mmHg 86%
    23:00 +11°C° 0.1 mm 1 mps 723 mmHg 89%

    Tomorrow, 22 October, Monday

    Time Temperature Precipitation Wind Pressure Humidity
    00:00 +11°C° 0.1 mm 1 mps 724 mmHg 89%
    01:00 +11°C° 0.1 mm 1 mps 724 mmHg 90%
    02:00 +11°C° 0.1 mm 1 mps 724 mmHg 91%
    03:00 +11°C° 0.1 mm 1 mps 724 mmHg 91%
    04:00 +11°C° 0.1 mm 1 mps 724 mmHg 91%
    05:00 +11°C° 0.1 mm 1 mps 724 mmHg 91%
    06:00 +11°C° 0 mm 1 mps 724 mmHg 89%
    07:00 +12°C° 0 mm 1 mps 724 mmHg 86%
    08:00 +12°C° 0 mm 1 mps 724 mmHg 84%
    09:00 +14°C° 0 mm 1 mps 724 mmHg 76%
    10:00 +15°C° 0 mm 1 mps 724 mmHg 68%
    11:00 +18°C° 0 mm 1 mps 724 mmHg 60%
    12:00 +18°C° 0 mm 1 mps 724 mmHg 58%
    13:00 +19°C° 0 mm 1 mps 723 mmHg 55%
    14:00 +18°C° 0 mm 2 mps 723 mmHg 53%
    15:00 +18°C° 0 mm 2 mps 723 mmHg 56%
    16:00 +18°C° 0 mm 1 mps 722 mmHg 60%
    17:00 +16°C° 0 mm 1 mps 722 mmHg 63%
    18:00 +15°C° 0 mm 1 mps 722 mmHg 69%
    19:00 +14°C° 0 mm 1 mps 722 mmHg 74%
    20:00 +13°C° 0 mm 1 mps 723 mmHg 80%
    21:00 +12°C° 0 mm 1 mps 723 mmHg 82%
    22:00 +12°C° 0 mm 1 mps 723 mmHg 84%
    23:00 +11°C° 0 mm 1 mps 723 mmHg 86%

    Day after tomorrow, 23 October, Tuesday

    Time Temperature Precipitation Wind Pressure Humidity
    00:00 +11°C° 0 mm 1 mps 723 mmHg 87%
    01:00 +11°C° 0 mm 1 mps 723 mmHg 87%
    02:00 +10°C° 0 mm 1 mps 723 mmHg 88%
    03:00 +10°C° 0 mm 1 mps 723 mmHg 88%
    04:00 +10°C° 0 mm 1 mps 722 mmHg 89%
    05:00 +9°C° 0 mm 1 mps 722 mmHg 89%
    06:00 +10°C° 0 mm 1 mps 722 mmHg 85%
    07:00 +11°C° 0 mm 1 mps 723 mmHg 82%
    08:00 +11°C° 0 mm 1 mps 723 mmHg 79%
    09:00 +13°C° 0 mm 1 mps 723 mmHg 69%
    10:00 +15°C° 0 mm 1 mps 723 mmHg 60%
    11:00 +18°C° 0 mm 1 mps 723 mmHg 50%
    12:00 +19°C° 0 mm 1 mps 723 mmHg 48%
    13:00 +20°C° 0 mm 1 mps 722 mmHg 45%
    14:00 +20°C° 0 mm 1 mps 722 mmHg 42%
    15:00 +20°C° 0 mm 1 mps 721 mmHg 45%
    16:00 +19°C° 0 mm 1 mps 721 mmHg 48%
    17:00 +18°C° 0 mm 1 mps 721 mmHg 51%
    18:00 +15°C° 0 mm 1 mps 721 mmHg 57%
    19:00 +13°C° 0 mm 1 mps 720 mmHg 63%
    20:00 +12°C° 0 mm 1 mps 720 mmHg 68%
    21:00 +11°C° 0 mm 1 mps 720 mmHg 70%
    22:00 +11°C° 0 mm 1 mps 720 mmHg 73%
    23:00 +10°C° 0 mm 1 mps 720 mmHg 75%

    24 October, Wednesday

    Time Temperature Precipitation Wind Pressure Humidity
    00:00 +10°C° 0 mm 1 mps 720 mmHg 77%
    01:00 +10°C° 0 mm 1 mps 720 mmHg 79%
    02:00 +9°C° 0 mm 1 mps 719 mmHg 80%
    03:00 +9°C° 0 mm 1 mps 719 mmHg 82%
    04:00 +9°C° 0 mm 1 mps 718 mmHg 83%
    05:00 +9°C° 0 mm 1 mps 718 mmHg 84%
    06:00 +9°C° 0 mm 1 mps 718 mmHg 81%
    07:00 +10°C° 0 mm 1 mps 718 mmHg 77%
    08:00 +11°C° 0 mm 1 mps 718 mmHg 74%
    09:00 +13°C° 0 mm 2 mps 717 mmHg 62%
    10:00 +14°C° 0 mm 3 mps 717 mmHg 51%
    11:00 +17°C° 0 mm 3 mps 717 mmHg 39%
    12:00 +18°C° 0 mm 4 mps 716 mmHg 40%
    13:00 +18°C° 0 mm 4 mps 715 mmHg 40%
    14:00 +19°C° 0 mm 4 mps 715 mmHg 40%
    15:00 +18°C° 0 mm 4 mps 714 mmHg 43%
    16:00 +17°C° 0 mm 4 mps 714 mmHg 46%
    17:00 +16°C° 0 mm 3 mps 714 mmHg 49%
    18:00 +14°C° 0 mm 3 mps 714 mmHg 53%
    19:00 +12°C° 0 mm 3 mps 714 mmHg 58%
    20:00 +11°C° 0 mm 3 mps 714 mmHg 63%
    21:00 +10°C° 0.2 mm 3 mps 715 mmHg 66%
    22:00 +9°C° 0.2 mm 3 mps 715 mmHg 69%
    23:00 +7°C° 0.2 mm 4 mps 716 mmHg 72%

    25 October, Thursday

    Time Temperature Precipitation Wind Pressure Humidity
    00:00 +7°C° 0 mm 3 mps 716 mmHg 73%
    01:00 +5°C° 0 mm 3 mps 716 mmHg 75%
    02:00 +4°C° 0 mm 3 mps 716 mmHg 76%
    03:00 +4°C° 0 mm 3 mps 716 mmHg 75%
    04:00 +3°C° 0 mm 3 mps 717 mmHg 75%
    05:00 +2°C° 0 mm 3 mps 717 mmHg 74%
    06:00 +3°C° 0 mm 4 mps 718 mmHg 71%
    07:00 +3°C° 0 mm 4 mps 718 mmHg 69%
    08:00 +3°C° 0 mm 4 mps 719 mmHg 66%
    09:00 +4°C° 0 mm 4 mps 719 mmHg 57%
    10:00 +6°C° 0 mm 4 mps 719 mmHg 48%
    11:00 +7°C° 0 mm 5 mps 719 mmHg 40%
    12:00 +8°C° 0 mm 5 mps 719 mmHg 37%
    13:00 +9°C° 0 mm 5 mps 719 mmHg 34%
    14:00 +10°C° 0 mm 5 mps 719 mmHg 31%
    15:00 +9°C° 0 mm 5 mps 719 mmHg 35%
    16:00 +10°C° 0 mm 4 mps 719 mmHg 38%
    17:00 +9°C° 0 mm 3 mps 719 mmHg 41%
    18:00 +8°C° 0 mm 3 mps 719 mmHg 47%
    19:00 +6°C° 0 mm 2 mps 720 mmHg 52%
    20:00 +5°C° 0 mm 2 mps 720 mmHg 58%
    21:00 +5°C° 0 mm 2 mps 720 mmHg 60%
    22:00 +6°C° 0 mm 2 mps 721 mmHg 62%
    23:00 +6°C° 0 mm 2 mps 721 mmHg 64%

    26 October, Friday

    Time Temperature Precipitation Wind Pressure Humidity
    00:00 +6°C° 0 mm 2 mps 721 mmHg 67%
    01:00 +6°C° 0 mm 2 mps 721 mmHg 71%
    02:00 +6°C° 0 mm 2 mps 721 mmHg 75%
    03:00 +6°C° 0 mm 2 mps 721 mmHg 78%
    04:00 +6°C° 0 mm 2 mps 721 mmHg 81%
    05:00 +6°C° 0 mm 2 mps 721 mmHg 84%
    06:00 +7°C° 0 mm 2 mps 721 mmHg 81%
    07:00 +8°C° 0 mm 2 mps 721 mmHg 79%
    08:00 +10°C° 0 mm 1 mps 722 mmHg 76%
    09:00 +12°C° 0 mm 2 mps 722 mmHg 66%
    10:00 +14°C° 0 mm 2 mps 722 mmHg 57%
    11:00 +17°C° 0 mm 2 mps 722 mmHg 48%
    12:00 +18°C° 0 mm 2 mps 721 mmHg 44%
    13:00 +18°C° 0 mm 2 mps 721 mmHg 40%
    14:00 +19°C° 0 mm 2 mps 721 mmHg 36%
    15:00 +18°C° 0 mm 2 mps 721 mmHg 40%
    16:00 +18°C° 0 mm 1 mps 720 mmHg 43%
    17:00 +16°C° 0 mm 1 mps 720 mmHg 46%
    18:00 +15°C° 0 mm 1 mps 720 mmHg 50%
    19:00 +13°C° 0 mm 1 mps 721 mmHg 54%
    20:00 +12°C° 0 mm 1 mps 721 mmHg 58%
    21:00 +11°C° 0 mm 1 mps 721 mmHg 58%
    22:00 +11°C° 0 mm 1 mps 721 mmHg 58%
    23:00 +10°C° 0 mm 2 mps 721 mmHg 58%
    Show more